Memphis, TN

11:38 AM CST on November 23, 2017 (GMT -0600)
Memphis International

Weather History for KMEM - June, 2013

Change the Weather History Date:

Tuesday, June 25, 2013

  Actual Average Record
Temperature  
Mean Temperature 84 °F 82 °F  
Max Temperature 92 °F 91 °F 100 °F (1988)
Min Temperature 76 °F 72 °F 56 °F (1974)
Degree Days  
Heating Degree Days 0 0  
Month to date heating degree days 0 0  
Since 1 June heating degree days 0 0  
Since 1 July heating degree days 2933 2964  
Cooling Degree Days 19 17  
Month to date cooling degree days 367 355  
Year to date cooling degree days 652 676  
Since 1 June cooling degree days 367 355  
Growing Degree Days 33 (Base 50)    
Moisture  
Dew Point 70 °F    
Average Humidity 64    
Maximum Humidity 87    
Minimum Humidity 41    
Precipitation  
Precipitation 0.00 in 0.10 in 2.84 in (1968)
Month to date precipitation 3.74 3.06  
Year to date precipitation 38.32 27.34  
Snow  
Snow 0.00 in 0.00 in - ()
Month to date snowfall 0.0 0.0  
Since 1 June snowfall 0.0 0.0  
Since 1 July snowfall 0.9 3.8  
Snow Depth 0.00 in    
Sea Level Pressure  
Sea Level Pressure 30.02 in    
Wind  
Wind Speed 10 mph (SSW)    
Max Wind Speed 17 mph    
Max Gust Speed 31 mph    
Visibility 10 miles    
Events      
T = Trace of Precipitation, MM = Missing Value Source: NWS Daily Summary

Daily Weather History Graph

Daily Weather History Graph

Search for Another Location

Airport or City:

Trip Planner

Search our weather history database for the weather conditions in past years. The results will help you decide how hot, cold, wet, or windy it might be!

Date:

Astronomy

Jun. 25, 2013 Rise Set
Actual Time 5:47 AM CDT 8:17 PM CDT
Civil Twilight 5:17 AM CDT 8:47 PM CDT
Nautical Twilight 4:40 AM CDT 9:24 PM CDT
Astronomical Twilight 4:00 AM CDT 10:04 PM CDT
Moon 10:11 PM CDT (6/25) 8:21 AM CDT (6/25)
Length of Visible Light 15h 29m
Length of Day
14h 30m
Waning Gibbous, 92% of the Moon is Illuminated
Jun 25
Waning Gibbous
Jun 29
Last Quarter
Jul 8
New
Jul 15
First Quarter
Jul 22
Full

Hourly Weather History & Observations

Time (CDT) Temp. Heat Index Dew Point Humidity Pressure Visibility Wind Dir Wind Speed Gust Speed Precip Events Conditions
12:54 AM 80.1 °F 83.8 °F 72.0 °F 76% 30.04 in 10.0 mi South 9.2 mph - N/A   Partly Cloudy
1:54 AM 79.0 °F - 72.0 °F 79% 30.03 in 10.0 mi SSW 9.2 mph - N/A   Clear
2:54 AM 78.1 °F - 71.1 °F 79% 30.03 in 10.0 mi SSW 9.2 mph - N/A   Clear
3:54 AM 78.1 °F - 71.1 °F 79% 30.03 in 10.0 mi SW 6.9 mph - N/A   Partly Cloudy
4:54 AM 77.0 °F - 71.1 °F 82% 30.03 in 10.0 mi SSW 6.9 mph - N/A   Partly Cloudy
5:54 AM 75.9 °F - 71.1 °F 85% 30.04 in 10.0 mi South 5.8 mph - N/A   Partly Cloudy
6:54 AM 77.0 °F - 71.1 °F 82% 30.05 in 10.0 mi SSE 6.9 mph - N/A   Scattered Clouds
7:54 AM 80.1 °F 83.8 °F 72.0 °F 76% 30.06 in 10.0 mi South 9.2 mph - N/A   Mostly Cloudy
8:54 AM 82.0 °F 87.4 °F 73.0 °F 74% 30.07 in 10.0 mi SW 10.4 mph 23.0 mph N/A   Mostly Cloudy
9:54 AM 84.0 °F 90.2 °F 73.0 °F 69% 30.06 in 10.0 mi SSW 12.7 mph 19.6 mph N/A   Scattered Clouds
10:30 AM 84.2 °F 90.9 °F 73.4 °F 70% 30.07 in 10.0 mi SW 11.5 mph 21.9 mph N/A   Mostly Cloudy
10:54 AM 86.0 °F 93.0 °F 73.0 °F 65% 30.05 in 10.0 mi SW 15.0 mph 26.5 mph N/A   Mostly Cloudy
11:45 AM 87.8 °F 93.8 °F 71.6 °F 58% 30.06 in 10.0 mi SW 13.8 mph 20.7 mph N/A   Mostly Cloudy
11:54 AM 88.0 °F 94.7 °F 72.0 °F 59% 30.05 in 10.0 mi SW 10.4 mph - N/A   Mostly Cloudy
12:47 PM 89.6 °F 96.2 °F 71.6 °F 55% 30.06 in 10.0 mi SSW 8.1 mph - N/A   Scattered Clouds
12:54 PM 89.1 °F 95.0 °F 71.1 °F 55% 30.05 in 10.0 mi SW 9.2 mph - N/A   Scattered Clouds
1:54 PM 91.0 °F 95.2 °F 68.0 °F 47% 30.04 in 10.0 mi South 12.7 mph - N/A   Scattered Clouds
2:54 PM 91.0 °F 94.3 °F 66.9 °F 45% 30.02 in 10.0 mi Variable 6.9 mph - N/A   Scattered Clouds
3:54 PM 91.9 °F 94.1 °F 64.9 °F 41% 30.00 in 10.0 mi South 13.8 mph 19.6 mph N/A   Scattered Clouds
4:54 PM 91.0 °F 93.8 °F 66.0 °F 44% 29.98 in 10.0 mi SSW 10.4 mph - N/A   Scattered Clouds
5:54 PM 91.0 °F 94.3 °F 66.9 °F 45% 29.95 in 10.0 mi SSW 11.5 mph - N/A   Mostly Cloudy
6:54 PM 88.0 °F 89.6 °F 64.9 °F 46% 29.94 in 10.0 mi South 13.8 mph - N/A   Overcast
7:54 PM 86.0 °F 88.2 °F 66.0 °F 51% 29.94 in 10.0 mi South 9.2 mph - N/A   Overcast
8:54 PM 84.0 °F 87.0 °F 68.0 °F 58% 29.94 in 10.0 mi South 10.4 mph - N/A   Overcast
9:54 PM 82.9 °F 85.8 °F 68.0 °F 60% 29.94 in 10.0 mi South 10.4 mph - N/A   Overcast
10:54 PM 82.9 °F 85.8 °F 68.0 °F 60% 29.94 in 10.0 mi SSW 11.5 mph - N/A   Overcast
11:54 PM 82.0 °F 85.5 °F 69.1 °F 65% 29.94 in 10.0 mi SSW 11.5 mph 17.3 mph N/A   Overcast